| time (UTC) | temp F | wind direction | speed knots | gust knots | rain 1hr in | rain 24hr in | rain mn in | humidity % | barometer mb |
| 20260506073008 | 63 | 278 | 0.0 | 1.7 | 0.00 | 0.00 | 0.00 | 38 | 1011.8 |
| 20260506072109 | 64 | 278 | 0.0 | 1.7 | 0.00 | 0.00 | 0.00 | 37 | 1011.7 |
| 20260506071207 | 64 | 0 | 0.0 | 0.0 | 0.00 | 0.00 | 0.00 | 38 | 1011.7 |
| 20260506070308 | 64 | 0 | 0.0 | 0.0 | 0.00 | 0.00 | 0.00 | 37 | 1011.7 |
| 20260506061807 | 64 | 280 | 0.0 | 0.9 | 0.00 | 0.00 | 0.00 | 36 | 1011.4 |
| 20260506060907 | 64 | 280 | 0.0 | 0.9 | 0.00 | 0.00 | 0.00 | 36 | 1011.3 |
| 20260506050607 | 68 | 274 | 3.5 | 7.0 | 0.00 | 0.00 | 0.00 | 31 | 1011.0 |
| 20260506043907 | 69 | 254 | 3.5 | 7.0 | 0.00 | 0.00 | 0.00 | 30 | 1010.6 |
| 20260506043007 | 70 | 255 | 2.6 | 6.1 | 0.00 | 0.00 | 0.00 | 30 | 1010.7 |
| 20260506042107 | 69 | 255 | 3.5 | 5.2 | 0.00 | 0.00 | 0.00 | 30 | 1010.6 |
| 20260506041207 | 70 | 251 | 2.6 | 7.8 | 0.00 | 0.00 | 0.00 | 30 | 1010.5 |
| 20260506040307 | 70 | 250 | 2.6 | 7.0 | 0.00 | 0.00 | 0.00 | 29 | 1010.4 |
| 20260506035407 | 70 | 247 | 4.3 | 7.0 | 0.00 | 0.00 | 0.00 | 29 | 1010.2 |
| 20260506033608 | 71 | 264 | 4.3 | 8.7 | 0.00 | 0.00 | 0.00 | 28 | 1010.1 |
| 20260506031807 | 72 | 258 | 5.2 | 9.6 | 0.00 | 0.00 | 0.00 | 27 | 1009.8 |
| 20260506030907 | 72 | 261 | 5.2 | 9.6 | 0.00 | 0.00 | 0.00 | 27 | 1009.7 |
| 20260506030007 | 72 | 263 | 6.1 | 9.6 | 0.00 | 0.00 | 0.00 | 26 | 1009.5 |
| 20260506025107 | 72 | 265 | 6.1 | 9.6 | 0.00 | 0.00 | 0.00 | 26 | 1009.4 |
| 20260506024208 | 72 | 266 | 7.0 | 10.4 | 0.00 | 0.00 | 0.00 | 26 | 1009.3 |
| 20260506023307 | 73 | 264 | 6.1 | 10.4 | 0.00 | 0.00 | 0.00 | 26 | 1009.2 |
| 20260506022408 | 73 | 263 | 6.1 | 10.4 | 0.00 | 0.00 | 0.00 | 26 | 1009.0 |
| 20260506021508 | 73 | 263 | 7.0 | 10.4 | 0.00 | 0.00 | 0.00 | 26 | 1008.8 |
| 20260506020607 | 74 | 259 | 7.0 | 13.9 | 0.00 | 0.00 | 0.00 | 26 | 1008.7 |
| 20260506015707 | 74 | 258 | 7.0 | 12.2 | 0.00 | 0.00 | 0.00 | 26 | 1008.7 |
| 20260506013907 | 75 | 269 | 7.8 | 13.9 | 0.00 | 0.00 | 0.00 | 25 | 1008.5 |
| 20260506012107 | 76 | 275 | 7.8 | 13.0 | 0.00 | 0.00 | 0.00 | 25 | 1008.4 |
| 20260506004507 | 77 | 280 | 8.7 | 14.8 | 0.00 | 0.00 | 0.00 | 24 | 1008.1 |
| 20260506003607 | 78 | 273 | 7.8 | 14.8 | 0.00 | 0.00 | 0.00 | 23 | 1008.2 |
| 20260506002707 | 78 | 281 | 5.2 | 13.0 | 0.00 | 0.00 | 0.00 | 25 | 1008.0 |
| 20260506001807 | 78 | 245 | 5.2 | 10.4 | 0.00 | 0.00 | 0.00 | 25 | 1008.0 |
| 20260506000907 | 78 | 246 | 7.8 | 15.6 | 0.00 | 0.00 | 0.00 | 25 | 1007.9 |
| 20260506000007 | 79 | 268 | 7.8 | 15.6 | 0.00 | 0.00 | 0.00 | 24 | 1007.9 |
| 20260505234207 | 79 | 270 | 9.6 | 18.2 | 0.00 | 0.00 | 0.00 | 24 | 1007.8 |
| 20260505233307 | 79 | 272 | 7.8 | 13.9 | 0.00 | 0.00 | 0.00 | 23 | 1007.8 |
| 20260505232407 | 77 | 290 | 7.8 | 13.9 | 0.00 | 0.00 | 0.00 | 26 | 1007.9 |
| 20260505231507 | 78 | 273 | 7.8 | 13.9 | 0.00 | 0.00 | 0.00 | 25 | 1007.9 |
| 20260505230607 | 79 | 255 | 5.2 | 13.9 | 0.00 | 0.00 | 0.00 | 25 | 1008.0 |
| 20260505224807 | 79 | 273 | 7.0 | 13.9 | 0.00 | 0.00 | 0.00 | 25 | 1007.9 |
| 20260505223907 | 81 | 250 | 7.0 | 13.0 | 0.00 | 0.00 | 0.00 | 24 | 1008.2 |
| 20260505222107 | 79 | 273 | 7.8 | 13.9 | 0.00 | 0.00 | 0.00 | 26 | 1008.3 |
| 20260505220306 | 81 | 269 | 8.7 | 17.4 | 0.00 | 0.00 | 0.00 | 24 | 1008.5 |
| 20260505215406 | 81 | 268 | 6.1 | 14.8 | 0.00 | 0.00 | 0.00 | 24 | 1008.4 |
| 20260505214508 | 79 | 264 | 7.8 | 13.9 | 0.00 | 0.00 | 0.00 | 26 | 1008.5 |
| 20260505213607 | 80 | 270 | 6.1 | 13.9 | 0.00 | 0.00 | 0.00 | 25 | 1008.5 |
| 20260505212706 | 81 | 236 | 5.2 | 11.3 | 0.00 | 0.00 | 0.00 | 25 | 1008.6 |
| 20260505211806 | 82 | 240 | 6.1 | 15.6 | 0.00 | 0.00 | 0.00 | 24 | 1008.8 |
| 20260505210907 | 80 | 246 | 6.1 | 13.0 | 0.00 | 0.00 | 0.00 | 27 | 1008.8 |
| 20260505210007 | 79 | 179 | 4.3 | 13.9 | 0.00 | 0.00 | 0.00 | 25 | 1008.9 |
| 20260505205107 | 81 | 222 | 6.1 | 13.0 | 0.00 | 0.00 | 0.00 | 25 | 1009.0 |
| 20260505204208 | 81 | 258 | 7.0 | 21.7 | 0.00 | 0.00 | 0.00 | 26 | 1009.0 |
| 20260505203307 | 80 | 252 | 5.2 | 13.0 | 0.00 | 0.00 | 0.00 | 28 | 1009.1 |
| 20260505202406 | 81 | 243 | 5.2 | 12.2 | 0.00 | 0.00 | 0.00 | 28 | 1009.1 |
| 20260505201507 | 77 | 221 | 3.5 | 13.0 | 0.00 | 0.00 | 0.00 | 32 | 1009.3 |
| 20260505200606 | 77 | 193 | 5.2 | 9.6 | 0.00 | 0.00 | 0.00 | 33 | 1009.3 |
| 20260505193907 | 77 | 274 | 6.1 | 12.2 | 0.00 | 0.00 | 0.00 | 35 | 1009.4 |
| 20260505193007 | 79 | 221 | 4.3 | 10.4 | 0.00 | 0.00 | 0.00 | 34 | 1009.5 |
| 20260505192107 | 76 | 191 | 5.2 | 9.6 | 0.00 | 0.00 | 0.00 | 36 | 1009.5 |
| 20260505191206 | 76 | 239 | 4.3 | 13.9 | 0.00 | 0.00 | 0.00 | 36 | 1009.7 |
| 20260505190306 | 77 | 198 | 4.3 | 10.4 | 0.00 | 0.00 | 0.00 | 35 | 1009.8 |
| 20260505183606 | 76 | 214 | 4.3 | 11.3 | 0.00 | 0.00 | 0.00 | 37 | 1010.0 |
| 20260505182707 | 76 | 210 | 4.3 | 11.3 | 0.00 | 0.00 | 0.00 | 37 | 1010.1 |
| 20260505181806 | 76 | 199 | 5.2 | 11.3 | 0.00 | 0.00 | 0.00 | 38 | 1010.2 |
| 20260505180906 | 75 | 193 | 4.3 | 9.6 | 0.00 | 0.00 | 0.00 | 38 | 1010.1 |
| 20260505180006 | 74 | 195 | 3.5 | 9.6 | 0.00 | 0.00 | 0.00 | 40 | 1010.2 |
| 20260505175106 | 73 | 223 | 4.3 | 8.7 | 0.00 | 0.00 | 0.00 | 45 | 1010.2 |
| 20260505174206 | 72 | 258 | 5.2 | 11.3 | 0.00 | 0.00 | 0.00 | 47 | 1010.2 |
| 20260505173306 | 74 | 293 | 2.6 | 7.8 | 0.00 | 0.00 | 0.00 | 45 | 1010.2 |
| 20260505172406 | 73 | 265 | 4.3 | 7.8 | 0.00 | 0.00 | 0.00 | 48 | 1010.2 |
| 20260505171507 | 74 | 276 | 6.1 | 9.6 | 0.00 | 0.00 | 0.00 | 48 | 1010.3 |
| 20260505165706 | 73 | 303 | 4.3 | 9.6 | 0.00 | 0.00 | 0.00 | 49 | 1010.2 |
| 20260505164806 | 73 | 233 | 3.5 | 10.4 | 0.00 | 0.00 | 0.00 | 47 | 1010.2 |
| 20260505163906 | 74 | 228 | 3.5 | 8.7 | 0.00 | 0.00 | 0.00 | 47 | 1010.2 |
| 20260505163008 | 74 | 257 | 3.5 | 9.6 | 0.00 | 0.00 | 0.00 | 47 | 1010.3 |
| 20260505162106 | 70 | 232 | 1.7 | 7.0 | 0.00 | 0.00 | 0.00 | 52 | 1010.4 |
| 20260505161206 | 69 | 193 | 2.6 | 8.7 | 0.00 | 0.00 | 0.00 | 53 | 1010.4 |
| 20260505160307 | 69 | 200 | 2.6 | 8.7 | 0.00 | 0.00 | 0.00 | 53 | 1010.4 |
| 20260505152706 | 69 | 227 | 2.6 | 6.1 | 0.00 | 0.00 | 0.00 | 55 | 1010.1 |
| 20260505151807 | 69 | 213 | 2.6 | 6.1 | 0.00 | 0.00 | 0.00 | 56 | 1010.2 |
| 20260505150907 | 68 | 184 | 2.6 | 6.1 | 0.00 | 0.00 | 0.00 | 57 | 1010.0 |
| 20260505140606 | 66 | 189 | 2.6 | 7.8 | 0.00 | 0.00 | 0.00 | 61 | 1010.0 |
| 20260505094506 | 67 | 145 | 2.6 | 7.8 | 0.00 | 0.00 | 0.00 | 56 | 1010.1 |
| 20260505093605 | 68 | 154 | 3.5 | 8.7 | 0.00 | 0.00 | 0.00 | 55 | 1010.0 |
| 20260505092706 | 68 | 153 | 5.2 | 9.6 | 0.00 | 0.00 | 0.00 | 56 | 1010.1 |
| 20260505090906 | 68 | 150 | 4.3 | 9.6 | 0.00 | 0.00 | 0.00 | 56 | 1010.2 |
| 20260505085106 | 68 | 159 | 5.2 | 10.4 | 0.00 | 0.00 | 0.00 | 54 | 1010.2 |
| 20260505082406 | 69 | 172 | 6.1 | 13.9 | 0.00 | 0.00 | 0.00 | 48 | 1010.6 |
| 20260505081505 | 70 | 160 | 6.1 | 10.4 | 0.00 | 0.00 | 0.00 | 47 | 1010.6 |
| 20260505075705 | 70 | 178 | 6.1 | 19.1 | 0.00 | 0.00 | 0.00 | 43 | 1010.8 |
| 20260505074805 | 70 | 171 | 5.2 | 19.1 | 0.00 | 0.00 | 0.00 | 43 | 1010.7 |